Content
SEND FEEDBACK

Daily
Averages
Monthly
Summary
Italy

PERUGIA, ITALY


Home > Europe > Italy
Elevation: 1677 feet     Latitude: 43 07N     Longitude: 012 23E

WEATHER
 
SELECT A DAY
Number of Records: 109,981;   Date Range: 7/1/96 - 12/16/14
 
SHARE

PRINT THIS DATA

[ ← Previous Day ]
WEATHER ALMANAC - JANUARY 18, 2013
[ Next Day → ]
[ °C ]   °F
Weather ElementAverageHighLow
Temperature38.2 °F39.2 °F (6:06 am)35.6 °F (9:50 pm)
Dewpoint31.9 °F33.8 °F (10:50 pm)30.2 °F (10:50 am)
Humidity78.3 %93 % (10:50 pm)70 % (10:50 am)
Barometer29.53 in29.62 in (10:50 pm)29.42 in (6:06 am)
Wind Speed8.2 mph15 mph (6:06 am)
Weather ElementAverage
Visibility6.2 mi
Wind DirectionSW (226.3 °)

Weather ElementTotal
Precipitation---
Heating Degree Days27.6 (Base 65)
Averaged from 19 records on January 18, 2013
WEATHER CONDITIONS BREAKOUT
WIND DIRECTION BREAKOUT
WEATHER BY HOUR - JANUARY 18, 2013
[ °C ]   °F
Local TimeTemperatureDewpointHumidityBarometerVisibilityWind DirectionWind SpeedGust SpeedPrecipitationEventsConditions
6:06 AM39.2 °F32.0 °F75 %29.42 in6.2 miNNW (340°)15.0 mphMostly Cloudy
6:50 AM39.2 °F32.0 °F75 %29.42 in6.2 miNNW (340°)12.7 mphMostly Cloudy
7:50 AM39.2 °F32.0 °F75 %29.44 in6.2 miNorth (360°)13.8 mphMostly Cloudy
8:50 AM37.4 °F32.0 °F81 %29.47 in6.2 miNNW (340°)13.8 mphMostly Cloudy
9:50 AM37.4 °F32.0 °F81 %29.47 in6.2 miNW (320°)12.7 mphMostly Cloudy
10:50 AM39.2 °F30.2 °F70 %29.50 in6.2 miNW (320°)15.0 mphMostly Cloudy
11:50 AM39.2 °F32.0 °F75 %29.50 in6.2 miNW (310°)13.8 mphMostly Cloudy
12:50 PM39.2 °F32.0 °F75 %29.50 in6.2 miNNW (330°)11.5 mphMostly Cloudy
1:50 PM39.2 °F32.0 °F75 %29.50 in6.2 miNNW (330°)11.5 mphMostly Cloudy
2:50 PM39.2 °F32.0 °F75 %29.53 in6.2 miNorth (360°)9.2 mphMostly Cloudy
3:50 PM39.2 °F32.0 °F75 %29.53 in6.2 miNW (310°)3.5 mphMostly Cloudy
4:50 PM39.2 °F30.2 °F70 %29.56 in6.2 miNorth (350°)10.4 mphMostly Cloudy
5:50 PM39.2 °F30.2 °F70 %29.59 in6.2 miWNW (290°)3.5 mphMostly Cloudy
6:50 PM37.4 °F32.0 °F81 %29.59 in6.2 miVariable2.3 mphMostly Cloudy
7:50 PM37.4 °F32.0 °F81 %29.59 in6.2 miVariable2.3 mphMostly Cloudy
8:50 PM37.4 °F32.0 °F81 %29.59 in6.2 miCalmMostly Cloudy
9:50 PM35.6 °F32.0 °F87 %29.59 in6.2 miVariable1.2 mphMostly Cloudy
10:50 PM35.6 °F33.8 °F93 %29.62 in6.2 miVariable2.3 mphMostly Cloudy
11:50 PM35.6 °F33.8 °F93 %29.62 in6.2 miVariable1.2 mphMostly Cloudy
Hourly data recorded from LIRZ, located miles away from Perugia, Italy







STORIES FROM OUR PARTNERS